| time (UTC) | temp F | wind direction | speed MPH | gust MPH | rain 1hr in | rain 24hr in | rain mn in | humidity % | barometer mb |
| 20260831011904 | 54 | 236 | 0.0 | 0.0 | 0.00 | 0.53 | 0.00 | 96 | 1002.9 |
| 20260831010903 | 55 | 236 | 0.0 | 0.0 | 0.00 | 0.53 | 0.00 | 96 | 1002.7 |
| 20260831005903 | 55 | 236 | 0.0 | 0.0 | 0.00 | 0.53 | 0.00 | 96 | 1002.7 |
| 20260831005403 | 55 | 236 | 0.0 | 0.0 | 0.00 | 0.53 | 0.00 | 96 | 1002.7 |
| 20260831004903 | 55 | 236 | 0.0 | 0.0 | 0.00 | 0.53 | 0.00 | 96 | 1002.8 |
| 20260831003903 | 55 | 236 | 0.0 | 0.0 | 0.00 | 0.53 | 0.00 | 96 | 1002.8 |
| 20260831003403 | 55 | 236 | 0.0 | 0.0 | 0.00 | 0.53 | 0.00 | 96 | 1002.6 |
| 20260831002904 | 55 | 236 | 0.0 | 0.0 | 0.00 | 0.53 | 0.00 | 96 | 1002.5 |
| 20260831002403 | 56 | 236 | 0.0 | 0.0 | 0.00 | 0.53 | 0.00 | 96 | 1002.6 |
| 20260831001904 | 56 | 236 | 0.0 | 0.0 | 0.00 | 0.53 | 0.00 | 96 | 1002.6 |
| 20260831001405 | 56 | 236 | 0.0 | 0.0 | 0.00 | 0.53 | 0.00 | 96 | 1002.6 |
| 20260831000904 | 56 | 236 | 0.0 | 0.0 | 0.00 | 0.53 | 0.00 | 96 | 1002.6 |
| 20260831000403 | 56 | 236 | 0.0 | 0.0 | 0.00 | 0.53 | 0.00 | 96 | 1002.5 |
| 20260830235403 | 56 | 236 | 0.0 | 2.0 | 0.00 | 0.53 | 0.00 | 96 | 1002.6 |
| 20260830234903 | 56 | 236 | 0.0 | 2.0 | 0.00 | 0.53 | 0.00 | 96 | 1002.5 |
| 20260830234403 | 56 | 236 | 0.0 | 0.0 | 0.00 | 0.53 | 0.00 | 96 | 1002.4 |
| 20260830233903 | 56 | 236 | 0.0 | 0.0 | 0.00 | 0.53 | 0.00 | 96 | 1002.4 |
| 20260830233404 | 56 | 236 | 0.0 | 0.0 | 0.00 | 0.53 | 0.00 | 96 | 1002.3 |
| 20260830232903 | 56 | 236 | 0.0 | 0.0 | 0.00 | 0.53 | 0.00 | 96 | 1002.4 |
| 20260830232405 | 56 | 236 | 0.0 | 0.0 | 0.00 | 0.53 | 0.00 | 96 | 1002.4 |
| 20260830231903 | 56 | 236 | 0.0 | 0.0 | 0.00 | 0.53 | 0.00 | 96 | 1002.6 |
| 20260830231403 | 56 | 236 | 0.0 | 0.0 | 0.00 | 0.53 | 0.00 | 96 | 1002.4 |
| 20260830230403 | 56 | 236 | 0.0 | 0.0 | 0.01 | 0.53 | 0.00 | 96 | 1002.6 |
| 20260830225903 | 56 | 236 | 0.0 | 0.0 | 0.01 | 0.53 | 0.53 | 96 | 1002.5 |
| 20260830224904 | 56 | 236 | 0.0 | 0.0 | 0.02 | 0.53 | 0.53 | 96 | 1002.4 |
| 20260830224404 | 56 | 236 | 0.0 | 0.0 | 0.05 | 0.53 | 0.53 | 96 | 1002.4 |
| 20260830223903 | 56 | 236 | 0.0 | 0.0 | 0.06 | 0.53 | 0.53 | 96 | 1002.4 |
| 20260830223403 | 56 | 236 | 0.0 | 0.0 | 0.07 | 0.53 | 0.53 | 96 | 1002.4 |
| 20260830222904 | 56 | 236 | 0.0 | 0.0 | 0.09 | 0.53 | 0.53 | 96 | 1002.3 |
| 20260830222404 | 56 | 236 | 0.0 | 1.0 | 0.10 | 0.53 | 0.53 | 96 | 1002.4 |
| 20260830221404 | 56 | 236 | 0.0 | 0.0 | 0.11 | 0.53 | 0.53 | 96 | 1002.3 |
| 20260830220905 | 56 | 236 | 0.0 | 0.0 | 0.11 | 0.53 | 0.53 | 96 | 1002.3 |
| 20260830220404 | 56 | 236 | 0.0 | 0.0 | 0.11 | 0.53 | 0.53 | 96 | 1002.2 |
| 20260830215904 | 56 | 236 | 0.0 | 0.0 | 0.10 | 0.52 | 0.52 | 96 | 1002.2 |
| 20260830215404 | 56 | 236 | 0.0 | 0.0 | 0.09 | 0.51 | 0.51 | 96 | 1002.1 |
| 20260830213404 | 56 | 236 | 0.0 | 0.0 | 0.04 | 0.46 | 0.46 | 96 | 1002.2 |
| 20260830212905 | 56 | 236 | 0.0 | 0.0 | 0.02 | 0.44 | 0.44 | 96 | 1002.2 |
| 20260830211904 | 56 | 236 | 0.0 | 0.0 | 0.01 | 0.43 | 0.43 | 96 | 1002.1 |
| 20260830211405 | 56 | 236 | 0.0 | 0.0 | 0.00 | 0.42 | 0.42 | 96 | 1002.1 |
| 20260830210905 | 56 | 236 | 0.0 | 0.0 | 0.00 | 0.42 | 0.42 | 96 | 1002.1 |
| 20260830205904 | 56 | 236 | 0.0 | 0.0 | 0.00 | 0.42 | 0.42 | 96 | 1002.1 |
| 20260830205405 | 56 | 236 | 0.0 | 0.0 | 0.00 | 0.42 | 0.42 | 96 | 1002.1 |
| 20260830204904 | 56 | 236 | 0.0 | 0.0 | 0.00 | 0.42 | 0.42 | 96 | 1002.0 |
| 20260830204404 | 56 | 236 | 0.0 | 0.0 | 0.00 | 0.42 | 0.42 | 96 | 1002.1 |
| 20260830203905 | 56 | 236 | 0.0 | 0.0 | 0.00 | 0.42 | 0.42 | 96 | 1002.1 |
| 20260830203404 | 56 | 236 | 0.0 | 1.0 | 0.00 | 0.42 | 0.42 | 96 | 1002.1 |
| 20260830202905 | 56 | 236 | 0.0 | 0.0 | 0.00 | 0.42 | 0.42 | 96 | 1002.1 |
| 20260830202405 | 56 | 236 | 0.0 | 0.0 | 0.00 | 0.42 | 0.42 | 95 | 1002.1 |
| 20260830201905 | 56 | 236 | 0.0 | 0.0 | 0.00 | 0.42 | 0.42 | 96 | 1002.0 |
| 20260830200904 | 57 | 236 | 0.0 | 0.0 | 0.00 | 0.42 | 0.42 | 96 | 1002.1 |
| 20260830200404 | 57 | 236 | 0.0 | 0.0 | 0.00 | 0.42 | 0.42 | 96 | 1002.0 |
| 20260830195904 | 57 | 236 | 0.0 | 0.0 | 0.00 | 0.42 | 0.42 | 96 | 1002.0 |
| 20260830195404 | 57 | 236 | 0.0 | 0.0 | 0.01 | 0.42 | 0.42 | 96 | 1002.0 |
| 20260830194905 | 57 | 236 | 0.0 | 0.0 | 0.02 | 0.42 | 0.42 | 96 | 1001.9 |
| 20260830194405 | 57 | 236 | 0.0 | 0.0 | 0.03 | 0.42 | 0.42 | 96 | 1001.8 |
| 20260830191904 | 58 | 236 | 0.0 | 0.0 | 0.13 | 0.42 | 0.42 | 96 | 1001.7 |
| 20260830190904 | 58 | 236 | 0.0 | 0.0 | 0.20 | 0.42 | 0.42 | 96 | 1001.8 |
| 20260830190404 | 58 | 236 | 0.0 | 0.0 | 0.20 | 0.42 | 0.42 | 96 | 1001.7 |
| 20260830185904 | 58 | 236 | 0.0 | 0.0 | 0.20 | 0.42 | 0.42 | 96 | 1001.8 |
| 20260830185404 | 59 | 236 | 0.0 | 0.0 | 0.19 | 0.41 | 0.41 | 96 | 1001.9 |
| 20260830183904 | 59 | 236 | 0.0 | 0.0 | 0.14 | 0.36 | 0.36 | 96 | 1002.0 |
| 20260830183404 | 59 | 236 | 0.0 | 0.0 | 0.12 | 0.34 | 0.34 | 96 | 1002.0 |
| 20260830182904 | 59 | 236 | 0.0 | 0.0 | 0.09 | 0.31 | 0.31 | 96 | 1002.1 |
| 20260830182404 | 60 | 236 | 0.0 | 0.0 | 0.07 | 0.29 | 0.29 | 96 | 1002.0 |
| 20260830181904 | 60 | 235 | 0.0 | 0.0 | 0.06 | 0.28 | 0.28 | 96 | 1001.8 |
| 20260830181404 | 60 | 236 | 1.0 | 2.0 | 0.03 | 0.25 | 0.25 | 96 | 1001.9 |
| 20260830180904 | 60 | 235 | 3.0 | 6.0 | 0.00 | 0.22 | 0.22 | 96 | 1001.9 |
| 20260830180404 | 60 | 236 | 0.0 | 0.0 | 0.00 | 0.22 | 0.22 | 96 | 1001.8 |
| 20260830175904 | 60 | 236 | 0.0 | 0.0 | 0.00 | 0.22 | 0.22 | 96 | 1001.7 |
| 20260830175405 | 60 | 236 | 0.0 | 0.0 | 0.00 | 0.22 | 0.22 | 96 | 1001.7 |
| 20260830174904 | 60 | 236 | 0.0 | 0.0 | 0.00 | 0.22 | 0.22 | 96 | 1001.7 |
| 20260830174404 | 60 | 236 | 0.0 | 0.0 | 0.01 | 0.22 | 0.22 | 96 | 1001.7 |
| 20260830173404 | 60 | 236 | 0.0 | 0.0 | 0.06 | 0.22 | 0.22 | 96 | 1001.8 |
| 20260830172405 | 60 | 236 | 0.0 | 2.0 | 0.15 | 0.22 | 0.22 | 96 | 1001.8 |
| 20260830171905 | 60 | 236 | 0.0 | 0.0 | 0.17 | 0.22 | 0.22 | 96 | 1001.8 |
| 20260830171404 | 60 | 236 | 0.0 | 0.0 | 0.21 | 0.22 | 0.22 | 96 | 1001.7 |
| 20260830170904 | 60 | 236 | 0.0 | 0.0 | 0.21 | 0.22 | 0.22 | 96 | 1001.8 |
| 20260830165904 | 60 | 236 | 0.0 | 0.0 | 0.21 | 0.22 | 0.22 | 96 | 1001.8 |
| 20260830165404 | 60 | 236 | 0.0 | 0.0 | 0.21 | 0.22 | 0.22 | 96 | 1001.9 |
| 20260830164406 | 59 | 236 | 0.0 | 0.0 | 0.20 | 0.21 | 0.21 | 95 | 1002.0 |
| 20260830163904 | 59 | 236 | 0.0 | 0.0 | 0.20 | 0.20 | 0.20 | 95 | 1002.0 |
| 20260830162904 | 59 | 236 | 0.0 | 0.0 | 0.11 | 0.12 | 0.12 | 94 | 1002.1 |
| 20260830162404 | 60 | 236 | 0.0 | 0.0 | 0.06 | 0.07 | 0.07 | 93 | 1002.0 |
| 20260830161904 | 60 | 236 | 0.0 | 3.0 | 0.04 | 0.05 | 0.05 | 93 | 1002.0 |
| 20260830161404 | 60 | 236 | 1.0 | 3.0 | 0.00 | 0.01 | 0.01 | 92 | 1002.0 |
| 20260830160904 | 60 | 236 | 2.0 | 3.0 | 0.00 | 0.01 | 0.01 | 92 | 1002.1 |
| 20260830160404 | 60 | 236 | 0.0 | 3.0 | 0.00 | 0.01 | 0.01 | 92 | 1002.0 |
| 20260830155904 | 60 | 236 | 1.0 | 3.0 | 0.00 | 0.01 | 0.01 | 92 | 1002.1 |
| 20260830154904 | 60 | 236 | 1.0 | 3.0 | 0.00 | 0.01 | 0.01 | 91 | 1002.0 |
| 20260830154404 | 61 | 236 | 1.0 | 2.0 | 0.00 | 0.01 | 0.01 | 92 | 1002.0 |
| 20260830153904 | 61 | 236 | 0.0 | 0.0 | 0.00 | 0.01 | 0.01 | 92 | 1002.0 |
| 20260830153405 | 60 | 236 | 1.0 | 5.0 | 0.00 | 0.01 | 0.01 | 91 | 1002.0 |
| 20260830152904 | 61 | 236 | 1.0 | 3.0 | 0.00 | 0.01 | 0.01 | 92 | 1002.0 |
| 20260830152404 | 60 | 236 | 0.0 | 1.0 | 0.00 | 0.01 | 0.01 | 92 | 1002.0 |
| 20260830151905 | 60 | 236 | 0.0 | 0.0 | 0.00 | 0.01 | 0.01 | 92 | 1002.0 |
| 20260830151404 | 60 | 236 | 1.0 | 3.0 | 0.00 | 0.01 | 0.01 | 91 | 1002.1 |
| 20260830150905 | 60 | 236 | 0.0 | 0.0 | 0.00 | 0.01 | 0.01 | 92 | 1002.0 |
| 20260830150404 | 60 | 236 | 1.0 | 5.0 | 0.00 | 0.01 | 0.01 | 90 | 1002.0 |
| 20260830145904 | 61 | 236 | 4.0 | 7.0 | 0.00 | 0.01 | 0.01 | 89 | 1002.0 |
| 20260830145404 | 61 | 237 | 0.0 | 1.0 | 0.00 | 0.01 | 0.01 | 90 | 1001.9 |
| 20260830144904 | 61 | 237 | 0.0 | 1.0 | 0.00 | 0.01 | 0.01 | 89 | 1001.9 |
| 20260830144404 | 61 | 237 | 0.0 | 1.0 | 0.00 | 0.01 | 0.01 | 88 | 1001.9 |
| 20260830143905 | 62 | 237 | 1.0 | 3.0 | 0.00 | 0.01 | 0.01 | 87 | 1002.0 |
| 20260830142905 | 63 | 237 | 1.0 | 3.0 | 0.00 | 0.01 | 0.01 | 87 | 1001.8 |
| 20260830142405 | 63 | 237 | 1.0 | 3.0 | 0.00 | 0.01 | 0.01 | 87 | 1001.8 |
| 20260830141404 | 62 | 237 | 0.0 | 1.0 | 0.00 | 0.01 | 0.01 | 90 | 1002.1 |
| 20260830140905 | 62 | 237 | 2.0 | 3.0 | 0.00 | 0.01 | 0.01 | 88 | 1002.2 |
| 20260830140404 | 62 | 237 | 1.0 | 3.0 | 0.00 | 0.01 | 0.01 | 88 | 1002.3 |
| 20260830135905 | 62 | 237 | 1.0 | 5.0 | 0.00 | 0.01 | 0.01 | 88 | 1002.4 |
| 20260830135405 | 62 | 237 | 0.0 | 2.0 | 0.00 | 0.01 | 0.01 | 89 | 1002.5 |
| 20260830134904 | 61 | 237 | 0.0 | 3.0 | 0.00 | 0.01 | 0.01 | 90 | 1002.4 |
| 20260830134405 | 61 | 237 | 1.0 | 3.0 | 0.00 | 0.01 | 0.01 | 90 | 1002.5 |
| 20260830133905 | 61 | 237 | 2.0 | 3.0 | 0.00 | 0.01 | 0.01 | 90 | 1002.6 |
| 20260830133404 | 61 | 237 | 1.0 | 3.0 | 0.00 | 0.01 | 0.01 | 90 | 1002.6 |
| 20260830132904 | 61 | 237 | 0.0 | 3.0 | 0.00 | 0.01 | 0.01 | 91 | 1002.6 |
| 20260830132404 | 61 | 237 | 1.0 | 3.0 | 0.00 | 0.01 | 0.01 | 92 | 1002.6 |
| 20260830131905 | 61 | 237 | 1.0 | 3.0 | 0.00 | 0.01 | 0.01 | 92 | 1002.6 |
| 20260830130904 | 61 | 237 | 2.0 | 6.0 | 0.00 | 0.01 | 0.01 | 91 | 1002.6 |
| 20260830130404 | 61 | 237 | 1.0 | 5.0 | 0.00 | 0.01 | 0.01 | 90 | 1002.6 |
| 20260830125904 | 62 | 238 | 1.0 | 6.0 | 0.00 | 0.01 | 0.01 | 90 | 1002.6 |
| 20260830125405 | 62 | 239 | 3.0 | 7.0 | 0.00 | 0.01 | 0.01 | 90 | 1002.6 |
| 20260830124905 | 62 | 243 | 2.0 | 5.0 | 0.00 | 0.01 | 0.01 | 90 | 1002.6 |
| 20260830124404 | 61 | 243 | 2.0 | 6.0 | 0.00 | 0.01 | 0.01 | 91 | 1002.6 |
| 20260830123903 | 61 | 244 | 2.0 | 5.0 | 0.00 | 0.01 | 0.01 | 90 | 1002.7 |
| 20260830123404 | 62 | 244 | 2.0 | 5.0 | 0.00 | 0.01 | 0.01 | 90 | 1002.7 |
| 20260830122904 | 62 | 244 | 3.0 | 6.0 | 0.00 | 0.01 | 0.01 | 90 | 1002.8 |
| 20260830122403 | 61 | 246 | 2.0 | 5.0 | 0.00 | 0.01 | 0.01 | 90 | 1002.7 |
| 20260830121404 | 61 | 246 | 2.0 | 5.0 | 0.00 | 0.01 | 0.01 | 89 | 1002.7 |
| 20260830120904 | 62 | 301 | 3.0 | 5.0 | 0.00 | 0.01 | 0.01 | 88 | 1002.7 |
| 20260830115904 | 62 | 5 | 0.0 | 3.0 | 0.00 | 0.01 | 0.01 | 88 | 1002.7 |
| 20260830114903 | 62 | 5 | 0.0 | 0.0 | 0.00 | 0.01 | 0.01 | 88 | 1002.7 |
| 20260830113904 | 61 | 5 | 0.0 | 0.0 | 0.00 | 0.01 | 0.01 | 90 | 1002.7 |
| 20260830113404 | 61 | 5 | 0.0 | 0.0 | 0.00 | 0.01 | 0.01 | 91 | 1002.8 |
| 20260830112904 | 61 | 5 | 0.0 | 0.0 | 0.00 | 0.01 | 0.01 | 91 | 1002.7 |
| 20260830112403 | 61 | 5 | 0.0 | 1.0 | 0.00 | 0.01 | 0.01 | 90 | 1002.7 |
| 20260830111903 | 61 | 5 | 0.0 | 0.0 | 0.00 | 0.01 | 0.01 | 91 | 1002.8 |
| 20260830111403 | 61 | 5 | 0.0 | 0.0 | 0.00 | 0.01 | 0.01 | 92 | 1002.7 |
| 20260830110904 | 61 | 5 | 0.0 | 1.0 | 0.00 | 0.01 | 0.01 | 91 | 1002.7 |
| 20260830110404 | 61 | 5 | 0.0 | 0.0 | 0.00 | 0.01 | 0.01 | 92 | 1002.7 |
| 20260830105903 | 61 | 5 | 0.0 | 0.0 | 0.00 | 0.01 | 0.01 | 91 | 1002.7 |
| 20260830105404 | 61 | 5 | 0.0 | 0.0 | 0.00 | 0.01 | 0.01 | 91 | 1002.7 |
| 20260830104904 | 60 | 5 | 0.0 | 0.0 | 0.00 | 0.01 | 0.01 | 90 | 1002.8 |
| 20260830104403 | 60 | 5 | 0.0 | 2.0 | 0.00 | 0.01 | 0.01 | 90 | 1002.7 |
| 20260830103903 | 60 | 5 | 0.0 | 3.0 | 0.00 | 0.01 | 0.01 | 89 | 1002.8 |
| 20260830102904 | 61 | 5 | 0.0 | 1.0 | 0.00 | 0.01 | 0.01 | 89 | 1002.9 |
| 20260830102405 | 61 | 5 | 1.0 | 3.0 | 0.00 | 0.01 | 0.01 | 89 | 1002.9 |
| 20260830101904 | 61 | 5 | 1.0 | 3.0 | 0.00 | 0.01 | 0.01 | 90 | 1003.0 |
| 20260830101404 | 62 | 5 | 0.0 | 2.0 | 0.00 | 0.01 | 0.01 | 91 | 1003.0 |
| 20260830100903 | 61 | 5 | 0.0 | 0.0 | 0.00 | 0.01 | 0.01 | 91 | 1003.0 |
| 20260830100403 | 61 | 5 | 0.0 | 0.0 | 0.00 | 0.01 | 0.01 | 91 | 1003.0 |
| 20260830095903 | 61 | 5 | 0.0 | 1.0 | 0.00 | 0.01 | 0.01 | 90 | 1003.0 |
| 20260830095404 | 61 | 5 | 0.0 | 2.0 | 0.00 | 0.01 | 0.01 | 93 | 1003.1 |
| 20260830094904 | 61 | 5 | 0.0 | 1.0 | 0.00 | 0.01 | 0.01 | 92 | 1003.1 |
| 20260830093904 | 60 | 5 | 0.0 | 2.0 | 0.00 | 0.01 | 0.01 | 93 | 1003.2 |
| 20260830093403 | 60 | 5 | 1.0 | 2.0 | 0.00 | 0.01 | 0.01 | 93 | 1003.3 |
| 20260830092903 | 60 | 5 | 0.0 | 0.0 | 0.00 | 0.01 | 0.01 | 93 | 1003.3 |
| 20260830092404 | 60 | 5 | 0.0 | 0.0 | 0.00 | 0.01 | 0.01 | 93 | 1003.3 |
| 20260830091904 | 60 | 5 | 0.0 | 0.0 | 0.00 | 0.01 | 0.01 | 93 | 1003.3 |
| 20260830091404 | 59 | 5 | 0.0 | 0.0 | 0.00 | 0.01 | 0.01 | 94 | 1003.3 |
| 20260830090903 | 59 | 5 | 0.0 | 0.0 | 0.00 | 0.01 | 0.01 | 94 | 1003.2 |
| 20260830090404 | 59 | 5 | 0.0 | 3.0 | 0.00 | 0.01 | 0.01 | 94 | 1003.2 |
| 20260830085903 | 59 | 5 | 3.0 | 3.0 | 0.00 | 0.01 | 0.01 | 95 | 1003.3 |
| 20260830085403 | 59 | 5 | 0.0 | 2.0 | 0.00 | 0.01 | 0.01 | 95 | 1003.2 |
| 20260830084403 | 59 | 5 | 1.0 | 3.0 | 0.00 | 0.01 | 0.01 | 96 | 1003.3 |
| 20260830083904 | 58 | 5 | 1.0 | 3.0 | 0.00 | 0.01 | 0.01 | 96 | 1003.3 |
| 20260830083404 | 58 | 5 | 0.0 | 0.0 | 0.00 | 0.01 | 0.01 | 96 | 1003.3 |
| 20260830082904 | 58 | 11 | 0.0 | 0.0 | 0.00 | 0.01 | 0.01 | 96 | 1003.3 |
| 20260830082403 | 58 | 11 | 1.0 | 5.0 | 0.01 | 0.01 | 0.01 | 96 | 1003.3 |
| 20260830081904 | 57 | 11 | 1.0 | 3.0 | 0.01 | 0.01 | 0.01 | 96 | 1003.4 |
| 20260830081403 | 57 | 11 | 2.0 | 3.0 | 0.01 | 0.01 | 0.01 | 96 | 1003.3 |
| 20260830080904 | 57 | 11 | 0.0 | 2.0 | 0.01 | 0.01 | 0.01 | 96 | 1003.3 |
| 20260830080405 | 57 | 11 | 0.0 | 0.0 | 0.01 | 0.01 | 0.01 | 96 | 1003.3 |
| 20260830075903 | 57 | 11 | 0.0 | 0.0 | 0.01 | 0.01 | 0.01 | 96 | 1003.3 |
| 20260830075404 | 56 | 11 | 0.0 | 0.0 | 0.01 | 0.01 | 0.01 | 96 | 1003.4 |
| 20260830074903 | 56 | 11 | 0.0 | 0.0 | 0.01 | 0.01 | 0.01 | 95 | 1003.4 |
| 20260830074405 | 56 | 11 | 0.0 | 0.0 | 0.01 | 0.01 | 0.01 | 95 | 1003.3 |
| 20260830072904 | 56 | 11 | 0.0 | 0.0 | 0.01 | 0.01 | 0.01 | 96 | 1003.3 |
| 20260830072404 | 56 | 11 | 0.0 | 0.0 | 0.00 | 0.00 | 0.00 | 96 | 1003.3 |
| 20260830071404 | 56 | 11 | 0.0 | 0.0 | 0.00 | 0.00 | 0.00 | 95 | 1003.3 |
| 20260830070904 | 56 | 11 | 0.0 | 0.0 | 0.00 | 0.00 | 0.00 | 95 | 1003.3 |
| 20260830070404 | 55 | 11 | 0.0 | 0.0 | 0.00 | 0.00 | 0.00 | 95 | 1003.3 |
| 20260830065404 | 55 | 11 | 0.0 | 0.0 | 0.00 | 0.00 | 0.00 | 95 | 1003.4 |
| 20260830064903 | 55 | 11 | 0.0 | 0.0 | 0.00 | 0.00 | 0.00 | 95 | 1003.3 |
| 20260830063904 | 55 | 11 | 0.0 | 0.0 | 0.00 | 0.00 | 0.00 | 95 | 1003.3 |
| 20260830063404 | 55 | 11 | 0.0 | 0.0 | 0.00 | 0.00 | 0.00 | 95 | 1003.3 |
| 20260830062903 | 55 | 11 | 0.0 | 0.0 | 0.00 | 0.00 | 0.00 | 95 | 1003.3 |
| 20260830062403 | 55 | 11 | 0.0 | 0.0 | 0.00 | 0.00 | 0.00 | 95 | 1003.4 |
| 20260830061404 | 55 | 11 | 0.0 | 0.0 | 0.00 | 0.00 | 0.00 | 95 | 1003.3 |
| 20260830060903 | 55 | 11 | 0.0 | 0.0 | 0.00 | 0.00 | 0.00 | 95 | 1003.3 |
| 20260830060403 | 55 | 11 | 0.0 | 0.0 | 0.00 | 0.00 | 0.00 | 95 | 1003.3 |
| 20260830055904 | 55 | 11 | 0.0 | 0.0 | 0.00 | 0.00 | 0.00 | 95 | 1003.3 |
| 20260830055404 | 54 | 11 | 0.0 | 0.0 | 0.00 | 0.00 | 0.00 | 95 | 1003.4 |
| 20260830054404 | 54 | 11 | 0.0 | 0.0 | 0.00 | 0.00 | 0.00 | 95 | 1003.3 |
| 20260830053904 | 54 | 11 | 0.0 | 0.0 | 0.00 | 0.00 | 0.00 | 95 | 1003.3 |
| 20260830053404 | 54 | 11 | 0.0 | 0.0 | 0.00 | 0.00 | 0.00 | 95 | 1003.3 |
| 20260830052903 | 54 | 11 | 0.0 | 0.0 | 0.00 | 0.00 | 0.00 | 95 | 1003.3 |
| 20260830052404 | 54 | 11 | 0.0 | 0.0 | 0.00 | 0.00 | 0.00 | 95 | 1003.2 |
| 20260830051904 | 54 | 11 | 0.0 | 0.0 | 0.00 | 0.00 | 0.00 | 95 | 1003.1 |
| 20260830051404 | 54 | 11 | 0.0 | 0.0 | 0.00 | 0.00 | 0.00 | 95 | 1003.1 |
| 20260830050904 | 54 | 11 | 0.0 | 0.0 | 0.00 | 0.00 | 0.00 | 95 | 1003.2 |
| 20260830050403 | 54 | 11 | 0.0 | 0.0 | 0.00 | 0.00 | 0.00 | 95 | 1003.2 |
| 20260830045904 | 54 | 11 | 0.0 | 0.0 | 0.00 | 0.00 | 0.00 | 94 | 1003.3 |
| 20260830045404 | 54 | 11 | 0.0 | 0.0 | 0.00 | 0.00 | 0.00 | 95 | 1003.2 |
| 20260830044404 | 54 | 11 | 0.0 | 0.0 | 0.00 | 0.00 | 0.00 | 94 | 1003.3 |
| 20260830043904 | 54 | 11 | 0.0 | 0.0 | 0.00 | 0.00 | 0.00 | 94 | 1003.3 |
| 20260830043403 | 54 | 11 | 0.0 | 0.0 | 0.00 | 0.00 | 0.00 | 94 | 1003.2 |
| 20260830042904 | 54 | 11 | 0.0 | 0.0 | 0.00 | 0.00 | 0.00 | 94 | 1003.3 |
| 20260830041904 | 54 | 11 | 0.0 | 0.0 | 0.00 | 0.00 | 0.00 | 94 | 1003.2 |
| 20260830041404 | 54 | 11 | 0.0 | 0.0 | 0.00 | 0.00 | 0.00 | 94 | 1003.1 |
| 20260830040903 | 54 | 11 | 0.0 | 0.0 | 0.00 | 0.00 | 0.00 | 94 | 1003.1 |
| 20260830040405 | 54 | 11 | 0.0 | 0.0 | 0.00 | 0.00 | 0.00 | 94 | 1003.0 |
| 20260830035904 | 54 | 11 | 0.0 | 0.0 | 0.00 | 0.00 | 0.00 | 94 | 1003.0 |
| 20260830035404 | 54 | 11 | 0.0 | 0.0 | 0.00 | 0.00 | 0.00 | 94 | 1003.1 |
| 20260830034904 | 54 | 11 | 0.0 | 0.0 | 0.00 | 0.00 | 0.00 | 94 | 1003.1 |
| 20260830034404 | 54 | 11 | 0.0 | 0.0 | 0.00 | 0.00 | 0.00 | 94 | 1003.1 |
| 20260830033904 | 54 | 11 | 0.0 | 0.0 | 0.00 | 0.00 | 0.00 | 94 | 1003.1 |
| 20260830033404 | 54 | 11 | 0.0 | 0.0 | 0.00 | 0.00 | 0.00 | 94 | 1003.2 |
| 20260830032404 | 54 | 11 | 0.0 | 0.0 | 0.00 | 0.00 | 0.00 | 94 | 1003.3 |
| 20260830031905 | 54 | 11 | 0.0 | 0.0 | 0.00 | 0.00 | 0.00 | 94 | 1003.2 |
| 20260830031404 | 54 | 11 | 0.0 | 0.0 | 0.00 | 0.00 | 0.00 | 94 | 1003.3 |
| 20260830030904 | 54 | 11 | 0.0 | 0.0 | 0.00 | 0.00 | 0.00 | 94 | 1003.3 |
| 20260830025904 | 54 | 11 | 0.0 | 0.0 | 0.00 | 0.00 | 0.00 | 94 | 1003.3 |
| 20260830025405 | 54 | 11 | 0.0 | 0.0 | 0.00 | 0.00 | 0.00 | 93 | 1003.3 |
| 20260830024404 | 54 | 11 | 0.0 | 0.0 | 0.00 | 0.00 | 0.00 | 93 | 1003.3 |
| 20260830023404 | 55 | 11 | 0.0 | 0.0 | 0.00 | 0.00 | 0.00 | 93 | 1003.3 |
| 20260830022904 | 55 | 11 | 0.0 | 0.0 | 0.00 | 0.00 | 0.00 | 93 | 1003.3 |
| 20260830022405 | 55 | 11 | 0.0 | 0.0 | 0.00 | 0.00 | 0.00 | 93 | 1003.3 |
| 20260830021904 | 55 | 11 | 0.0 | 0.0 | 0.00 | 0.00 | 0.00 | 93 | 1003.4 |
| 20260830021404 | 55 | 11 | 0.0 | 0.0 | 0.00 | 0.00 | 0.00 | 93 | 1003.3 |
| 20260830020904 | 55 | 11 | 0.0 | 0.0 | 0.00 | 0.00 | 0.00 | 93 | 1003.4 |
| 20260830020404 | 55 | 11 | 0.0 | 0.0 | 0.00 | 0.00 | 0.00 | 93 | 1003.5 |
| 20260830014405 | 55 | 11 | 0.0 | 0.0 | 0.00 | 0.00 | 0.00 | 94 | 1003.5 |
| 20260830013904 | 55 | 11 | 0.0 | 0.0 | 0.00 | 0.00 | 0.00 | 94 | 1003.5 |
| 20260830013404 | 55 | 11 | 0.0 | 0.0 | 0.00 | 0.00 | 0.00 | 94 | 1003.5 |
| 20260830012904 | 55 | 11 | 0.0 | 0.0 | 0.00 | 0.00 | 0.00 | 94 | 1003.6 |